Theta_e
305 304 304 303 304 302 302 302 302 300 300 303 301 302 303 303 302 304 305 306 307 307 308 308 308 308 309 311 317 322 324 322 321 320 319 316 314 312 311 310 307 304 305 309
305 307 304 302 302 303 300 301 301 301 301 302 302 302 302 301 301 303 306 306 308 308 309 309 309 308 308 309 311 317 322 322 320 319 318 318 315 313 312 310 308 304 304 308
309 308 305 303 303 304 303 303 301 304 303 302 301 302 303 303 302 303 305 307 308 308 309 309 309 308 308 308 309 313 318 320 320 319 319 319 316 313 312 311 309 304 304 307
307 309 307 304 304 304 304 301 302 304 304 304 302 307 303 304 303 301 303 306 309 311 310 309 309 308 308 308 309 310 315 317 319 319 319 320 317 314 313 312 309 304 304 306
305 306 307 305 306 303 304 302 303 303 303 303 303 303 305 304 305 307 307 308 312 311 311 311 310 310 309 308 308 309 313 316 317 319 319 320 319 315 313 312 310 305 304 305
304 303 307 307 303 303 302 303 304 304 305 305 305 305 308 310 308 308 307 309 311 312 311 311 310 308 308 308 308 309 312 315 316 318 320 321 320 316 314 312 310 307 304 305
307 305 302 303 304 303 304 306 306 310 308 310 302 304 311 308 306 306 307 307 309 308 308 308 310 309 307 307 307 308 311 315 316 318 320 321 321 317 314 313 311 308 304 305
308 307 305 302 306 305 305 308 311 310 305 309 301 308 308 305 308 308 308 308 309 309 309 308 308 308 308 307 307 308 309 312 314 317 320 322 321 318 315 313 312 309 304 305
306 306 304 302 303 305 305 308 308 305 294 305 305 303 304 305 306 304 304 304 307 310 309 307 306 306 307 307 307 309 310 311 313 316 319 322 322 319 316 314 312 308 303 305
306 305 304 303 303 304 306 307 310 307 307 307 307 305 310 308 307 306 305 304 308 308 308 307 305 305 306 307 307 309 310 310 313 317 320 322 322 319 316 314 312 309 303 305
306 304 303 303 304 308 304 308 307 307 307 309 304 305 302 307 306 306 305 306 306 306 307 307 305 305 306 307 308 310 310 311 313 317 320 322 321 319 316 314 313 309 303 305
306 307 302 305 303 303 304 307 307 311 307 302 304 305 303 303 303 303 303 304 305 306 306 306 305 306 308 309 309 310 311 311 313 317 321 322 321 318 316 314 313 309 303 305
305 308 307 300 304 304 306 304 307 305 305 305 307 306 302 302 301 301 302 302 305 306 306 305 306 307 309 310 310 310 311 313 315 319 321 322 321 318 316 314 313 309 303 305
299 304 308 305 305 304 302 306 306 307 307 308 308 306 306 303 302 300 303 304 305 307 307 307 307 307 308 310 311 311 312 314 317 319 321 321 320 318 315 314 313 309 303 305
298 298 294 301 303 305 304 303 303 307 307 306 306 302 303 305 303 302 305 306 307 308 308 309 309 308 308 308 310 312 314 316 318 319 320 321 320 317 315 314 313 309 303 305
298 297 297 298 298 302 307 303 303 302 306 307 302 304 302 303 304 302 304 307 308 309 309 310 310 310 310 309 309 311 314 316 318 319 320 320 319 317 315 314 312 309 303 305
297 296 297 297 297 300 303 303 304 304 304 305 304 303 302 304 303 303 304 307 307 307 308 308 309 310 310 311 310 310 309 314 317 318 319 319 318 316 314 313 312 309 303 304
296 296 297 295 297 300 299 297 298 300 302 303 303 303 303 304 306 306 307 307 308 307 307 308 308 308 309 310 311 311 311 310 310 310 312 314 316 315 314 313 313 309 304 304
295 295 293 294 295 297 302 302 303 304 304 303 303 303 302 304 305 304 306 307 307 307 308 308 309 308 308 309 309 310 310 311 311 312 312 313 315 315 314 313 312 309 305 303
295 295 291 288 294 295 298 302 299 303 302 300 301 302 302 303 304 303 305 306 307 307 308 308 308 309 308 308 308 309 310 310 311 311 312 313 314 314 314 313 312 310 305 303
292 289 286 286 289 293 295 296 298 299 303 299 300 302 302 302 304 306 306 301 300 303 307 308 308 308 308 308 308 308 309 310 310 311 311 311 312 313 313 312 312 311 306 304
292 291 289 286 283 289 293 296 295 299 301 300 301 300 299 300 303 303 301 300 300 302 305 307 307 308 307 308 308 308 309 308 309 310 311 311 311 312 312 312 312 311 308 304
291 292 291 293 293 293 295 295 297 298 300 300 301 302 300 299 300 299 299 298 298 299 302 305 306 306 307 308 308 308 307 307 307 307 309 310 311 311 312 312 312 311 309 305
287 290 291 291 293 292 294 294 295 296 296 296 297 298 298 298 299 298 297 298 297 297 298 302 305 305 305 305 306 307 307 307 307 307 307 308 310 311 311 311 312 312 311 308
288 289 288 289 291 291 292 293 293 294 294 294 294 293 295 297 298 297 296 296 298 297 296 297 300 303 304 305 304 304 305 306 307 307 306 306 308 310 311 311 311 312 312 311
287 286 287 289 291 291 292 292 292 292 292 292 292 292 293 293 294 294 294 295 297 298 297 296 297 301 302 302 302 302 303 304 305 307 307 306 306 308 310 311 311 311 311 311
Wind_Speed
7 5 16 16 16 6 6 5 7 4 5 5 8 11 17 20 10 21 30 29 27 28 23 21 20 24 31 36 36 34 33 30 29 30 28 26 21 17 13 10 7 6 5 4
5 23 11 8 7 12 6 6 7 4 3 5 3 12 15 7 11 21 32 34 36 35 30 28 28 26 28 33 37 37 36 34 32 31 29 26 21 17 14 12 10 7 6 5
26 4 15 13 10 16 18 18 5 3 1 3 5 8 10 8 13 23 33 39 38 38 36 33 32 29 30 31 37 37 38 35 33 32 30 28 23 20 20 17 12 9 8 6
20 25 13 12 19 17 19 8 6 4 1 4 2 6 6 6 10 7 21 31 41 43 41 38 35 33 33 31 31 36 36 36 36 33 33 30 26 24 19 14 12 10 9 8
10 13 16 13 15 15 7 9 13 7 4 2 4 3 6 4 8 15 14 32 37 35 37 39 40 38 36 34 32 34 37 36 36 34 32 30 27 22 17 16 15 13 11 10
16 3 18 13 5 16 8 8 6 4 3 4 11 9 7 10 10 10 8 23 25 29 29 29 27 29 35 36 36 35 38 38 37 36 34 32 28 24 21 18 17 14 13 12
16 10 5 6 7 9 6 12 2 1 2 9 2 7 17 8 7 7 9 9 9 11 8 18 27 30 31 38 40 38 39 40 38 36 34 32 28 25 21 17 16 15 14 12
15 11 17 5 9 8 13 16 7 8 5 3 2 9 6 14 16 17 22 23 19 17 16 13 23 32 32 34 41 40 40 40 39 38 35 32 29 27 23 19 15 14 12 12
15 15 1 9 5 14 8 14 8 6 2 3 5 8 7 13 15 8 12 16 22 23 15 12 21 26 33 34 41 41 42 41 39 38 36 33 31 29 25 20 18 16 15 15
4 3 7 10 4 5 16 13 7 1 5 4 5 5 6 6 9 7 9 11 19 19 17 12 18 24 28 32 37 39 40 38 38 38 36 33 31 29 26 23 21 19 18 17
4 4 1 8 12 20 5 14 6 5 4 8 2 6 7 8 3 5 7 11 8 14 16 14 17 20 23 26 32 36 37 36 36 36 35 34 32 30 28 25 22 20 19 18
20 3 5 14 7 1 7 10 10 11 8 2 2 5 1 5 6 6 5 7 7 10 13 14 16 20 22 25 28 33 35 34 33 33 34 34 33 31 30 28 24 22 20 19
13 9 10 3 3 3 15 11 23 1 3 8 7 4 2 4 6 8 8 8 12 14 13 14 16 17 19 21 24 29 33 32 33 34 35 33 33 31 30 28 25 23 21 20
8 6 4 14 16 7 2 13 18 12 5 12 14 3 3 7 7 6 9 10 12 13 14 13 13 14 15 17 21 24 28 30 32 33 33 33 33 31 29 28 26 24 22 21
4 6 5 6 7 6 6 7 8 18 18 8 7 4 5 5 4 3 10 13 16 16 15 13 11 11 13 15 17 21 25 28 30 31 31 32 30 29 28 29 27 25 23 22
2 1 6 6 12 5 3 5 8 10 17 10 4 5 4 3 9 8 13 15 17 17 16 14 12 9 9 11 14 17 21 25 28 29 30 30 29 29 29 29 28 26 24 23
3 3 2 2 6 6 3 4 3 7 8 16 8 4 3 5 6 5 11 17 17 16 15 14 12 11 8 7 9 13 18 22 25 27 28 30 31 31 30 30 30 28 26 25
1 2 3 1 4 1 2 3 8 8 9 7 3 8 8 6 9 10 16 12 12 13 13 11 10 9 9 8 7 11 15 18 22 25 27 30 31 31 31 33 32 29 27 26
3 1 2 3 3 5 3 4 5 2 5 5 6 5 6 10 6 3 7 6 9 7 6 5 5 4 4 4 6 6 10 16 20 23 26 28 30 31 32 34 33 31 29 28
3 1 2 2 5 4 3 7 6 6 4 7 5 9 7 9 7 5 14 8 7 7 9 8 5 2 1 4 6 8 8 11 15 20 23 26 29 31 33 34 33 30 28 26
3 0 4 2 1 5 5 7 5 4 3 11 11 3 11 5 5 13 13 10 7 6 7 8 8 5 2 1 6 10 11 10 9 13 18 23 26 30 32 33 32 30 28 27
5 5 4 2 3 6 6 6 5 4 13 3 18 22 22 20 9 17 12 6 5 4 5 6 7 8 7 4 4 6 7 5 7 11 16 20 24 27 31 33 32 31 30 29
3 6 4 6 5 2 11 2 6 4 9 5 11 4 13 18 15 9 8 8 5 4 2 3 6 6 5 7 8 9 7 7 7 10 15 19 23 27 30 33 34 34 33 32
4 1 2 3 7 6 7 12 13 15 18 15 9 11 13 13 17 20 19 13 9 6 5 3 4 3 2 3 6 8 6 9 11 12 13 18 23 28 31 34 35 36 37 37
5 6 5 4 8 10 15 20 25 26 26 26 26 18 14 15 15 12 21 22 19 17 14 12 12 10 8 7 7 7 6 6 7 12 16 19 23 28 31 34 36 38 37 37
7 7 4 6 14 12 14 24 25 28 30 32 31 32 28 20 22 18 22 27 24 26 22 19 18 19 15 10 8 6 9 11 11 10 16 20 24 28 32 35 37 38 37 34
Wind_Direction
199 190 209 188 196 178 184 198 210 231 232 167 218 249 261 258 245 257 264 261 254 249 241 225 231 233 230 226 224 221 218 216 212 208 208 210 213 212 213 210 204 186 179 152
190 229 208 177 192 203 182 194 229 286 169 178 240 259 255 239 245 231 249 255 257 255 247 238 235 230 224 224 222 220 218 216 214 214 214 214 211 210 213 214 207 193 185 173
220 192 181 186 188 202 219 219 166 225 134 226 327 273 258 249 237 248 249 253 255 252 249 240 235 233 230 226 222 219 216 214 215 214 212 212 209 210 213 210 204 196 186 184
236 232 194 198 212 190 218 158 152 157 83 241 133 284 268 250 250 230 244 248 249 247 246 244 237 232 229 228 222 219 216 213 214 214 212 212 211 211 212 210 205 198 190 189
215 174 189 216 219 184 208 151 187 171 177 28 208 286 262 266 254 255 246 244 247 248 246 246 243 236 232 228 224 217 213 212 214 213 212 212 210 214 215 207 205 202 194 191
222 238 196 205 149 186 136 96 61 62 103 267 227 197 234 224 215 247 242 249 252 253 250 244 237 232 227 222 217 214 209 209 209 210 209 209 209 209 208 206 206 203 197 193
205 219 285 149 120 160 169 152 72 71 191 238 335 197 248 249 239 240 248 235 229 220 234 235 225 217 216 211 209 209 208 207 206 207 208 207 206 208 209 209 209 207 200 195
215 205 198 201 196 177 183 179 163 180 198 197 131 235 241 232 264 244 248 253 253 249 258 252 218 212 208 208 207 204 203 204 204 204 204 203 204 205 206 207 206 205 199 191
201 225 80 191 160 150 188 205 169 101 11 82 217 287 270 255 257 245 247 234 242 240 240 240 213 206 207 205 203 201 199 201 202 202 200 200 201 202 203 202 202 200 196 193
270 203 199 189 126 218 183 168 172 316 150 233 261 270 239 296 271 266 243 215 240 230 218 215 200 199 202 204 202 199 199 200 200 200 199 199 199 199 200 201 202 200 197 192
215 202 329 141 207 190 144 187 195 128 170 187 214 255 218 240 30 249 262 220 226 201 194 197 191 192 197 201 202 197 199 199 199 199 197 198 198 198 199 202 201 202 201 194
211 275 146 206 202 270 192 188 186 194 217 226 144 272 318 290 275 257 4 118 137 157 164 172 177 182 186 193 195 197 199 199 198 196 197 198 198 198 200 200 201 201 200 195
197 210 191 3 294 250 202 209 200 161 115 206 167 252 313 35 45 40 82 88 121 129 136 146 158 170 180 188 192 195 199 198 196 195 196 197 198 200 201 201 201 200 198 195
348 233 259 200 211 143 209 206 204 206 183 209 219 204 354 10 34 40 71 97 120 125 129 135 146 159 172 182 188 190 193 197 197 196 197 197 198 200 201 201 201 201 198 197
346 14 20 293 326 194 179 195 197 216 229 187 213 188 249 50 64 47 95 111 119 119 118 124 134 147 161 172 180 186 190 192 195 197 197 198 199 200 201 202 201 200 199 197
313 22 357 32 360 2 271 341 219 216 231 251 133 206 115 111 100 91 100 109 108 106 104 105 108 121 141 162 173 181 186 190 193 196 198 198 199 200 201 202 201 201 198 196
227 146 81 42 329 329 223 250 271 267 228 223 201 196 192 107 129 133 113 103 96 96 93 92 93 97 105 132 161 177 183 188 194 198 199 200 201 200 201 201 201 201 199 197
206 293 106 103 346 222 312 272 226 242 277 280 144 173 182 183 161 139 122 102 103 97 87 85 79 69 82 90 137 167 179 190 197 201 203 203 202 201 201 201 201 200 199 199
188 198 110 119 153 295 121 22 33 7 291 231 210 218 213 189 181 170 191 136 128 116 98 70 37 55 95 120 123 153 180 188 195 201 203 203 203 203 202 202 200 200 200 199
190 351 109 126 147 189 180 155 217 140 281 328 251 191 187 203 222 223 164 140 137 138 135 134 142 228 243 179 192 194 199 203 200 202 203 205 206 206 206 203 202 202 202 202
138 63 172 261 149 278 241 176 136 90 289 330 16 294 197 179 210 187 150 134 120 148 171 175 170 168 146 183 197 201 209 219 213 205 205 206 208 207 205 204 203 204 203 202
171 156 179 136 80 274 203 122 165 187 175 80 24 36 42 30 62 136 139 145 123 120 129 146 170 177 193 188 155 180 191 194 222 220 211 209 209 206 204 205 205 206 206 206
230 194 185 187 212 170 188 296 259 234 208 247 153 272 319 334 320 344 336 7 14 42 121 131 119 118 166 196 217 217 233 234 227 224 221 214 210 209 208 207 206 208 207 209
290 289 227 75 248 245 259 277 276 280 272 270 270 258 247 239 268 299 306 301 305 318 340 270 234 246 244 183 189 218 216 234 229 227 226 220 216 211 209 210 211 212 211 210
194 152 196 262 265 281 274 266 271 272 269 280 287 287 273 253 244 279 299 294 285 293 297 302 293 266 252 254 239 244 254 267 274 240 228 224 221 217 214 213 213 215 219 220
173 176 169 221 236 227 248 271 277 279 282 283 286 288 280 262 246 253 277 280 267 267 276 284 278 271 262 251 248 277 272 273 278 273 234 231 225 220 217 216 215 216 220 223